IA5KRO-13 Weather Reports


time (UTC)temp
F
wind
direction
speed
knots
gust
knots
rain 1hr
in
rain 24hr
in
rain mn
in
humidity
%
barometer
mb
20260507085508 73 142 0.9 0.9 0.00 0.00 0.00 57 1021.7
20260507085013 75 169 0.9 0.9 0.00 0.00 0.00 56 1021.7
20260507084513 75 155 0.9 0.9 0.00 0.00 0.00 55 1021.7
20260507084013 75 161 0.0 0.9 0.00 0.00 0.00 54 1021.7
20260507083509 73 129 1.7 1.7 0.00 0.00 0.00 55 1021.7
20260507083022 73 146 0.0 0.9 0.00 0.00 0.00 57 1021.7
20260507082509 73 158 0.9 1.7 0.00 0.00 0.00 56 1021.7
20260507082013 73 131 0.9 1.7 0.00 0.00 0.00 57 1021.7
20260507081514 75 133 0.0 0.0 0.00 0.00 0.00 56 1021.7
20260507081013 73 168 0.9 0.9 0.00 0.00 0.00 57 1021.7
20260507080509 73 165 0.0 0.9 0.00 0.00 0.00 55 1021.7
20260507080031 73 165 0.9 0.9 0.00 0.00 0.00 58 1021.7
20260507075509 73 170 0.9 3.5 0.00 0.00 0.00 57 1021.7
20260507075013 73 107 0.0 0.9 0.00 0.00 0.00 55 1021.7
20260507074513 73 138 2.6 3.5 0.00 0.00 0.00 56 1021.7
20260507074013 73 154 0.0 0.9 0.00 0.00 0.00 58 1021.7
20260507073509 73 162 0.0 0.9 0.00 0.00 0.00 57 1022.0
20260507073024 73 147 0.0 0.0 0.00 0.00 0.00 57 1022.0
20260507072509 73 154 0.0 0.9 0.00 0.00 0.00 56 1022.0
20260507072014 72 168 0.0 0.9 0.00 0.00 0.00 59 1022.0
20260507071513 72 167 0.9 1.7 0.00 0.00 0.00 58 1022.0
20260507071014 72 162 0.0 0.0 0.00 0.00 0.00 58 1021.7
20260507070510 72 156 0.0 0.0 0.00 0.00 0.00 60 1021.7
20260507070033 70 175 0.9 0.9 0.00 0.00 0.00 60 1021.7
20260507065511 72 165 0.0 0.9 0.00 0.00 0.00 59 1021.7
20260507065014 70 166 1.7 1.7 0.00 0.00 0.00 59 1021.7
20260507064514 70 164 0.0 0.0 0.00 0.00 0.00 59 1021.7
20260507064014 72 164 0.0 0.0 0.00 0.00 0.00 58 1021.7
20260507063509 70 164 0.0 0.0 0.00 0.00 0.00 61 1021.7
20260507063023 68 168 0.0 0.0 0.00 0.00 0.00 66 1021.7
20260507062510 66 163 0.0 0.9 0.00 0.00 0.00 66 1021.7
20260507062013 66 155 0.9 0.9 0.00 0.00 0.00 69 1021.0
20260507061512 68 173 0.0 0.0 0.00 0.00 0.00 68 1021.0
20260507061013 66 166 0.0 0.0 0.00 0.00 0.00 72 1021.0
20260507060510 66 162 0.0 0.9 0.00 0.00 0.00 69 1021.0
20260507060034 66 166 0.0 0.0 0.00 0.00 0.00 69 1020.7
20260507055510 66 165 0.0 0.0 0.00 0.00 0.00 71 1020.7
20260507055014 64 168 0.0 0.0 0.00 0.00 0.00 73 1020.7
20260507054513 63 167 0.0 0.0 0.00 0.00 0.00 77 1020.7
20260507054013 63 177 0.0 0.0 0.00 0.00 0.00 77 1020.7
20260507053509 61 188 0.9 1.7 0.00 0.00 0.00 81 1020.7
20260507053022 59 244 2.6 2.6 0.00 0.00 0.00 81 1020.7
20260507052509 59 235 0.9 0.9 0.00 0.00 0.00 82 1020.7
20260507052014 59 207 1.7 1.7 0.00 0.00 0.00 82 1020.7
20260507051513 59 240 1.7 1.7 0.00 0.00 0.00 83 1020.7
20260507051014 57 273 1.7 1.7 0.00 0.00 0.00 85 1020.7
20260507050031 57 232 1.7 2.6 0.00 0.00 0.00 86 1020.3
20260507045509 55 209 1.7 2.6 0.00 0.00 0.00 89 1020.3
20260507045013 55 206 0.9 0.9 0.00 0.00 0.00 88 1020.3
20260507043509 55 181 0.9 1.7 0.00 0.00 0.00 88 1020.3
20260507043023 55 260 0.9 2.6 0.00 0.00 0.00 88 1020.3
20260507042509 55 218 1.7 2.6 0.00 0.00 0.00 89 1020.3
20260507042013 55 192 0.9 0.9 0.00 0.00 0.00 89 1020.0
20260507041513 55 213 0.9 1.7 0.00 0.00 0.00 89 1020.0
20260507041013 55 183 0.9 0.9 0.00 0.00 0.00 88 1020.3
20260507040509 55 187 1.7 1.7 0.00 0.00 0.00 88 1020.3
20260507040033 55 191 1.7 1.7 0.00 0.00 0.00 88 1020.3
20260507035509 55 178 0.9 0.9 0.00 0.00 0.00 88 1020.3
20260507035013 57 254 1.7 1.7 0.00 0.00 0.00 88 1020.3
20260507034512 55 264 0.9 0.9 0.00 0.00 0.00 89 1020.3
20260507034013 55 183 0.0 0.9 0.00 0.00 0.00 90 1020.3
20260507033509 57 178 0.0 0.9 0.00 0.00 0.00 90 1020.3
20260507033022 57 244 1.7 1.7 0.00 0.00 0.00 89 1020.3
20260507032510 57 216 1.7 2.6 0.00 0.00 0.00 89 1020.3
20260507032012 57 165 0.9 1.7 0.00 0.00 0.00 89 1020.0
20260507031512 57 261 1.7 3.5 0.00 0.00 0.00 90 1020.0
20260507031013 57 206 1.7 2.6 0.00 0.00 0.00 91 1020.3
20260507030509 57 199 1.7 1.7 0.00 0.00 0.00 91 1020.3
20260507030032 57 248 1.7 2.6 0.00 0.00 0.00 91 1020.3
20260507025509 57 247 0.9 0.9 0.00 0.00 0.00 91 1020.3
20260507025013 57 236 1.7 2.6 0.00 0.00 0.00 90 1020.3
20260507024514 57 249 2.6 3.5 0.00 0.00 0.00 91 1020.3
20260507024013 57 269 3.5 4.3 0.00 0.00 0.00 91 1020.3
20260507023509 57 180 0.9 0.9 0.00 0.00 0.00 91 1020.0
20260507023022 57 252 1.7 2.6 0.00 0.00 0.00 91 1020.0
20260507022510 57 194 0.9 1.7 0.00 0.00 0.00 91 1020.0
20260507022013 57 239 1.7 1.7 0.00 0.00 0.00 91 1020.3
20260507021512 57 180 0.9 0.9 0.00 0.00 0.00 92 1020.3
20260507021013 57 180 0.9 0.9 0.00 0.00 0.00 92 1020.3
20260507020509 57 267 2.6 2.6 0.00 0.00 0.00 91 1020.3
20260507020032 59 224 2.6 2.6 0.00 0.00 0.00 91 1020.0
20260507015510 59 292 2.6 2.6 0.00 0.00 0.00 90 1020.0
20260507015013 59 215 0.9 0.9 0.00 0.00 0.00 90 1020.0
20260507014513 59 172 0.0 0.0 0.00 0.00 0.00 90 1020.0
20260507014015 59 176 0.9 0.9 0.00 0.00 0.00 90 1020.0
20260507013510 59 249 1.7 2.6 0.00 0.00 0.00 90 1020.0
20260507013022 59 166 0.9 0.9 0.00 0.00 0.00 90 1020.0
20260507012509 59 233 1.7 1.7 0.00 0.00 0.00 89 1020.0
20260507012014 59 177 0.0 0.0 0.00 0.00 0.00 88 1020.0
20260507011512 59 182 0.9 0.9 0.00 0.00 0.00 88 1020.0
20260507011012 59 168 0.0 0.0 0.00 0.00 0.00 87 1020.0
20260507010509 59 180 0.9 0.9 0.00 0.00 0.00 87 1020.0
20260507010033 59 168 0.0 0.9 0.00 0.00 0.00 86 1020.0
20260507005509 59 225 1.7 1.7 0.00 0.00 0.00 85 1020.0
20260507005013 59 184 1.7 1.7 0.00 0.00 0.00 85 1020.0
20260507004512 61 178 0.9 0.9 0.00 0.00 0.00 84 1020.3
20260507004013 61 243 0.9 0.9 0.00 0.00 0.00 84 1020.3
20260507003510 61 166 0.0 0.0 0.00 0.00 0.00 83 1020.0
20260507003023 61 168 0.0 0.0 0.00 0.00 0.00 82 1020.0
20260507002510 61 169 0.0 0.0 0.00 0.00 0.00 81 1020.0
20260507002014 61 169 0.0 0.9 0.00 0.00 0.00 81 1020.0
20260507001513 61 164 0.9 0.9 0.00 0.00 0.00 80 1020.0
20260507001012 61 172 0.0 0.0 0.00 0.00 0.00 80 1020.3
20260507000510 63 155 0.0 0.0 0.00 0.00 0.00 81 1020.3
20260507000034 63 180 0.9 0.9 0.00 0.00 0.00 80 1020.0
20260506235509 63 182 0.0 0.9 0.00 0.00 0.00 80 1020.0
20260506235013 63 172 0.0 0.9 0.00 0.00 0.00 80 1020.0
20260506234514 61 148 0.9 0.9 0.00 0.00 0.00 79 1020.0
20260506234013 61 173 0.9 0.9 0.00 0.00 0.00 81 1020.0
20260506233509 61 172 0.9 0.9 0.00 0.00 0.00 83 1020.0
20260506233023 61 230 0.9 2.6 0.00 0.00 0.00 84 1020.0
20260506232509 61 173 0.9 0.9 0.00 0.00 0.00 85 1020.0
20260506231513 61 159 0.9 0.9 0.00 0.00 0.00 90 1020.0
20260506231013 59 164 0.0 0.0 0.00 0.00 0.00 91 1020.0
20260506230509 59 220 1.7 1.7 0.00 0.00 0.00 90 1020.0
20260506230032 59 180 0.9 0.9 0.00 0.00 0.00 91 1020.0
20260506225511 59 287 1.7 1.7 0.00 0.00 0.00 91 1020.0
20260506224514 61 176 0.9 0.9 0.00 0.00 0.00 91 1019.6
20260506222510 61 180 0.9 0.9 0.00 0.00 0.00 88 1020.0
20260506222013 63 201 0.9 0.9 0.00 0.00 0.00 89 1019.6
20260506221514 63 173 0.0 1.7 0.00 0.00 0.00 90 1019.6
20260506220509 63 174 0.0 0.9 0.00 0.00 0.00 89 1019.6
20260506215510 63 169 1.7 2.6 0.00 0.08 0.08 89 1019.6
20260506215013 63 179 0.9 1.7 0.00 0.08 0.08 89 1019.6
20260506214513 63 179 0.0 0.0 0.00 0.08 0.08 88 1019.6
20260506214013 63 180 0.9 1.7 0.00 0.08 0.08 88 1019.6
20260506213509 64 260 0.9 0.9 0.00 0.08 0.08 87 1019.6
20260506212513 64 169 0.9 2.6 0.00 0.08 0.08 87 1019.6
20260506212013 64 255 0.9 0.9 0.00 0.08 0.08 88 1019.6
20260506211512 64 203 0.9 0.9 0.00 0.08 0.08 88 1019.6
20260506211013 64 163 1.7 2.6 0.00 0.08 0.08 88 1019.6
20260506210509 64 106 0.9 1.7 0.00 0.08 0.08 88 1019.6
20260506210032 64 170 0.0 0.9 0.00 0.08 0.08 87 1019.6
20260506205509 64 179 0.0 0.0 0.00 0.08 0.08 87 1019.6
20260506205013 64 180 0.9 0.9 0.00 0.08 0.08 87 1019.6
20260506204514 64 106 0.9 0.9 0.00 0.08 0.08 86 1019.6
20260506203509 64 150 0.9 0.9 0.00 0.08 0.08 86 1019.3
20260506203023 64 181 0.9 0.9 0.00 0.08 0.08 85 1019.3
20260506202013 64 164 2.6 4.3 0.00 0.08 0.08 84 1019.3
20260506201512 64 154 0.9 0.9 0.00 0.08 0.08 84 1019.3
20260506201013 64 163 0.0 0.0 0.00 0.08 0.08 83 1019.3
20260506200510 64 167 0.0 0.0 0.00 0.08 0.08 84 1019.3
20260506200031 64 170 0.0 0.9 0.00 0.08 0.08 84 1019.0
20260506195509 64 169 0.0 0.0 0.00 0.08 0.08 84 1019.0
20260506195013 64 165 0.9 0.9 0.00 0.08 0.08 84 1019.0
20260506194512 64 164 0.0 0.0 0.00 0.08 0.08 84 1019.0
20260506194013 64 213 0.9 0.9 0.00 0.08 0.08 83 1019.0
20260506193509 64 165 0.0 0.0 0.00 0.08 0.08 82 1018.3
20260506193024 64 167 0.9 0.9 0.00 0.08 0.08 81 1018.3
20260506192509 64 297 1.7 2.6 0.00 0.08 0.08 81 1018.3
20260506191015 64 188 1.7 2.6 0.00 0.08 0.08 83 1018.3
20260506190509 64 263 2.6 2.6 0.00 0.08 0.08 83 1018.3
20260506190033 64 168 0.0 0.9 0.00 0.08 0.08 83 1018.0
20260506185509 64 235 0.9 1.7 0.00 0.08 0.08 80 1018.0
20260506185013 64 170 0.0 0.9 0.00 0.08 0.08 79 1018.0
20260506184512 64 279 3.5 6.1 0.00 0.08 0.08 79 1018.0
20260506184014 66 228 0.0 0.9 0.00 0.08 0.08 78 1018.0
20260506183509 64 217 5.2 6.1 0.00 0.08 0.08 78 1018.0
20260506183023 64 180 0.9 0.9 0.00 0.08 0.08 79 1018.0
20260506182510 64 173 0.9 1.7 0.00 0.08 0.08 79 1018.0
20260506182014 66 171 2.6 3.5 0.00 0.08 0.08 80 1017.6
20260506181514 66 267 2.6 2.6 0.00 0.08 0.08 78 1017.6
20260506181020 66 268 1.7 2.6 0.00 0.08 0.08 79 1018.0
20260506180509 66 108 1.7 2.6 0.00 0.08 0.08 80 1018.0
20260506180033 66 171 0.9 0.9 0.00 0.08 0.08 80 1017.6
20260506175509 66 131 3.5 4.3 0.00 0.08 0.08 78 1017.6
20260506175013 66 172 0.0 0.0 0.00 0.08 0.08 78 1017.6
20260506174513 66 129 0.0 0.9 0.00 0.08 0.08 79 1017.6
20260506174013 66 173 0.9 4.3 0.00 0.08 0.08 80 1017.6
20260506173510 66 167 0.9 0.9 0.00 0.08 0.08 81 1018.0
20260506173027 66 160 0.9 2.6 0.00 0.08 0.08 82 1018.0
20260506172014 66 129 0.0 0.9 0.00 0.08 0.08 81 1017.6
20260506171513 66 141 0.9 0.9 0.00 0.08 0.08 82 1017.6
20260506171014 66 266 1.7 2.6 0.00 0.08 0.08 79 1017.6
20260506170509 66 171 0.9 0.9 0.00 0.08 0.08 80 1017.6
20260506170033 66 180 1.7 3.5 0.00 0.08 0.08 81 1017.6
20260506165510 66 143 0.9 1.7 0.00 0.08 0.08 81 1018.0
20260506165013 66 171 0.9 0.9 0.00 0.08 0.08 82 1018.0
20260506164512 66 67 0.9 2.6 0.00 0.08 0.08 82 1018.0
20260506164014 66 233 1.7 1.7 0.00 0.08 0.08 80 1018.0
20260506163026 66 140 1.7 1.7 0.00 0.08 0.08 81 1018.0
20260506162510 66 176 5.2 9.6 0.00 0.08 0.08 79 1018.0
20260506162013 66 103 1.7 2.6 0.00 0.08 0.08 77 1018.0
20260506161512 66 310 2.6 4.3 0.00 0.08 0.08 76 1018.0
20260506161014 68 170 0.9 0.9 0.00 0.08 0.08 76 1018.0
20260506160509 68 148 1.7 1.7 0.00 0.08 0.08 76 1018.0
20260506160035 68 180 0.9 0.9 0.00 0.08 0.08 76 1018.0
20260506155510 68 106 2.6 3.5 0.00 0.08 0.08 75 1018.0
20260506155014 70 160 0.9 0.9 0.00 0.08 0.08 73 1018.0
20260506154512 70 158 0.0 0.9 0.00 0.08 0.08 72 1018.0
20260506154014 70 161 0.0 0.0 0.00 0.08 0.08 72 1018.0
20260506153512 70 167 0.0 0.9 0.00 0.08 0.08 71 1018.0
20260506153025 70 168 0.0 0.0 0.00 0.08 0.08 70 1018.0
20260506152513 70 166 0.0 0.9 0.00 0.08 0.08 70 1018.0
20260506152012 70 151 0.9 0.9 0.00 0.08 0.08 69 1018.0
20260506151514 72 159 0.0 0.9 0.00 0.08 0.08 67 1018.0
20260506151013 73 141 0.0 0.9 0.00 0.08 0.08 66 1018.0
20260506150510 72 172 0.0 0.0 0.00 0.08 0.08 66 1018.0
20260506150034 72 143 0.0 0.9 0.00 0.08 0.08 66 1018.0
20260506145510 72 163 0.0 0.9 0.00 0.08 0.08 68 1018.0
20260506145014 72 176 0.9 0.9 0.00 0.08 0.08 66 1018.0
20260506144513 72 151 0.9 0.9 0.00 0.08 0.08 67 1018.0
20260506144013 70 281 1.7 5.2 0.00 0.08 0.08 66 1018.0
20260506143509 70 217 1.7 4.3 0.00 0.08 0.08 66 1018.0
20260506143024 70 190 3.5 4.3 0.00 0.08 0.08 66 1018.0
20260506142510 70 264 0.9 1.7 0.00 0.08 0.08 66 1018.0
20260506142013 70 270 0.9 1.7 0.00 0.08 0.08 65 1018.0
20260506141513 72 220 0.9 0.9 0.00 0.08 0.08 66 1018.0
20260506141013 72 102 0.9 1.7 0.00 0.08 0.08 66 1018.0
20260506140509 72 161 0.9 0.9 0.00 0.08 0.08 66 1018.0
20260506140033 72 257 3.5 7.0 0.00 0.08 0.08 65 1018.0
20260506135509 73 235 1.7 1.7 0.00 0.08 0.08 63 1018.0
20260506135014 73 164 1.7 3.5 0.00 0.08 0.08 59 1018.0
20260506134513 73 168 2.6 4.3 0.00 0.08 0.08 57 1018.0
20260506134015 75 313 1.7 1.7 0.00 0.08 0.08 54 1018.0
20260506133510 75 167 0.9 2.6 0.00 0.08 0.08 57 1018.0
20260506133024 73 170 0.9 2.6 0.00 0.08 0.08 59 1018.0
20260506132510 73 281 0.9 1.7 0.00 0.08 0.08 60 1018.0
20260506132014 72 210 1.7 1.7 0.00 0.08 0.08 63 1018.0
20260506131513 72 275 3.5 4.3 0.00 0.08 0.08 61 1018.0
20260506130510 72 226 4.3 5.2 0.00 0.08 0.08 64 1018.0
20260506130035 73 298 1.7 2.6 0.00 0.08 0.08 62 1018.0
20260506125509 73 282 3.5 6.1 0.00 0.08 0.08 63 1018.0
20260506125013 73 181 1.7 1.7 0.00 0.08 0.08 65 1018.0
20260506124513 72 229 3.5 5.2 0.00 0.08 0.08 66 1018.0
20260506124014 72 234 7.0 9.6 0.00 0.08 0.08 67 1018.0
20260506123509 72 258 5.2 9.6 0.00 0.08 0.08 66 1018.3
20260506123025 73 167 3.5 5.2 0.00 0.08 0.08 64 1018.3
20260506122509 72 264 7.0 8.7 0.00 0.08 0.08 65 1018.3
20260506122014 72 300 3.5 3.5 0.00 0.08 0.08 65 1018.0
20260506121513 72 280 3.5 7.0 0.00 0.08 0.08 66 1018.0
20260506121014 72 288 5.2 8.7 0.00 0.08 0.08 66 1018.3
20260506120509 72 250 3.5 3.5 0.00 0.08 0.08 67 1018.3
20260506120034 70 229 5.2 7.0 0.00 0.08 0.08 69 1018.3
20260506115509 70 309 5.2 7.0 0.00 0.08 0.08 69 1018.0
20260506115013 70 288 5.2 6.1 0.00 0.08 0.08 70 1018.0
20260506114512 70 181 2.6 5.2 0.00 0.08 0.08 69 1018.3
20260506114013 72 258 6.1 9.6 0.00 0.08 0.08 67 1018.3
20260506113510 72 289 5.2 6.1 0.00 0.08 0.08 66 1018.0
20260506113024 72 264 3.5 6.1 0.00 0.08 0.08 65 1018.0
20260506112509 72 300 3.5 7.8 0.00 0.08 0.08 66 1018.0
20260506112013 70 320 7.8 9.6 0.00 0.08 0.08 68 1017.6
20260506111513 70 147 6.1 7.8 0.00 0.08 0.08 69 1017.6
20260506111014 70 296 7.0 12.2 0.00 0.08 0.08 70 1018.0
20260506110510 70 255 5.2 9.6 0.00 0.08 0.08 70 1018.0
20260506110032 68 189 9.6 11.3 0.00 0.08 0.08 73 1018.0
20260506105510 70 273 9.6 12.2 0.00 0.08 0.08 69 1018.0
20260506105013 72 282 9.6 9.6 0.00 0.08 0.08 64 1018.0
20260506104513 70 284 7.8 8.7 0.00 0.08 0.08 68 1018.0
20260506104013 70 303 2.6 5.2 0.00 0.08 0.08 67 1018.0
20260506103508 70 305 5.2 9.6 0.00 0.08 0.08 69 1018.3
20260506103023 70 306 7.8 13.0 0.00 0.08 0.08 68 1018.3
20260506102509 70 301 3.5 4.3 0.00 0.08 0.08 69 1018.3
20260506102013 70 302 7.8 13.9 0.00 0.08 0.08 69 1019.0
20260506101513 68 123 3.5 6.1 0.00 0.08 0.08 73 1019.0
20260506101013 68 274 7.0 9.6 0.00 0.08 0.08 70 1018.3
20260506100509 66 249 5.2 7.0 0.00 0.08 0.08 74 1018.3
20260506100036 68 296 6.1 8.7 0.00 0.08 0.08 75 1018.3
20260506095509 66 264 5.2 6.1 0.00 0.08 0.08 75 1018.3
20260506095013 66 283 5.2 7.0 0.00 0.08 0.08 74 1018.3
20260506094513 68 310 5.2 7.8 0.00 0.08 0.08 72 1018.3
20260506094014 66 282 7.0 12.2 0.00 0.08 0.08 77 1018.3
20260506093510 66 280 5.2 7.0 0.00 0.08 0.08 78 1018.3
20260506093023 66 281 3.5 5.2 0.00 0.08 0.08 79 1018.3
20260506092509 64 171 3.5 6.1 0.00 0.08 0.08 84 1018.3
20260506092013 66 170 0.9 1.7 0.00 0.08 0.08 85 1018.0
20260506091512 66 210 1.7 2.6 0.00 0.08 0.08 85 1018.0
20260506091012 66 220 1.7 2.6 0.00 0.08 0.08 84 1017.6
20260506090509 66 148 2.6 5.2 0.00 0.08 0.08 83 1017.6
20260506090032 66 129 7.8 12.2 0.00 0.08 0.08 75 1017.6